Rochester, MN
on Thursday, November 28, 2013

Thursday
Previous Day Next Day
Daily Summary
 ActualAverageRecord
Temperature
Mean Temperature °F 27°F  
Max Temperature 30°F 34°F 62°F (1909)
Min Temperature 16°F 19°F -24°F (1887)
Degree Days
Heating Degree Days 42 38  
Month to date heating degree days 936 858  
Since 1 July heating degree days 1619 1594  
Cooling Degree Days 0 0  
Month to date cooling degree days 0 0  
Year to date cooling degree days 656 585  
Moisture
Dew Point 11°F   
Average Humidity 61    
Maximum Humidity 74    
Minimum Humidity 47    
Precipitation
Precipitation 0.00 in 0.06 in 1.17 in (2006)
Month to date precipitation 1.76 1.80  
Year to date precipitation 40.66 31.68  
Snow
Snow 0.00 in 0.30 in 5.50 in (1983)
Month to date snowfall 1.3 5.4  
Since 1 July snowfall 1.3 6.2  
Snow Depth 0.00 in   
Wind
Wind Speed 9 mph   
Max Wind Speed 20 mph   
Max Gust Speed 23 mph   
Visibility 10 miles   
Events     

Key: T is trace of precipitation, MM is missing value
Source: NWS Daily Summary
Time(CST)TemperatureDew PointHumidity Pressure Visibility Wind DirectionWind SpeedGust SpeedPrecipitationEvents Conditions
12:54 AM 21.0°F 9.0°F 60% 30.11 in 10.0 miles SSE 11.5 mph - N/A   Overcast
1:54 AM 21.0°F 9.0°F 60% 30.11 in 10.0 miles South 11.5 mph - N/A   Overcast
2:54 AM 19.9°F 10.0°F 65% 30.12 in 10.0 miles South 8.1 mph - N/A   Overcast
3:54 AM 19.9°F 10.0°F 65% 30.13 in 10.0 miles South 6.9 mph - N/A   Overcast
4:54 AM 19.9°F 10.0°F 65% 30.15 in 10.0 miles South 4.6 mph - N/A   Overcast
5:54 AM 21.0°F 10.9°F 65% 30.17 in 10.0 miles West 3.5 mph - N/A   Overcast
6:54 AM 19.9°F 10.9°F 68% 30.20 in 10.0 miles WNW 9.2 mph - N/A   Overcast
7:54 AM 21.0°F 12.0°F 68% 30.23 in 10.0 miles NW 11.5 mph - N/A   Overcast
8:54 AM 21.9°F 12.0°F 66% 30.26 in 10.0 miles North 12.7 mph - N/A   Overcast
9:54 AM 23.0°F 12.0°F 63% 30.29 in 10.0 miles NNW 12.7 mph - N/A   Mostly Cloudy
10:54 AM 27.0°F 12.0°F 53% 30.30 in 10.0 miles NNW 13.8 mph - N/A   Clear
11:54 AM 28.9°F 12.0°F 49% 30.31 in 10.0 miles North 12.7 mph - N/A   Clear
12:54 PM 30.0°F 12.0°F 47% 30.32 in 10.0 miles NNW 12.7 mph - N/A   Clear
1:54 PM 28.9°F 12.0°F 49% 30.33 in 10.0 miles NW 15.0 mph - N/A   Partly Cloudy
2:54 PM 28.9°F 12.9°F 51% 30.36 in 10.0 miles NW 12.7 mph - N/A   Scattered Clouds
3:54 PM 27.0°F 12.0°F 53% 30.40 in 10.0 miles NNW 13.8 mph - N/A   Scattered Clouds
4:54 PM 24.1°F 12.0°F 60% 30.43 in 10.0 miles NNW 11.5 mph - N/A   Partly Cloudy
5:54 PM 19.9°F 10.9°F 68% 30.47 in 10.0 miles NW 8.1 mph - N/A   Clear
6:54 PM 18.0°F 10.9°F 74% 30.50 in 10.0 miles NW 6.9 mph - N/A   Clear
7:54 PM 17.1°F 9.0°F 71% 30.51 in 10.0 miles NNW 5.8 mph - N/A   Clear
8:54 PM 17.1°F 9.0°F 71% 30.51 in 10.0 miles North 4.6 mph - N/A   Clear
9:54 PM 16.0°F 9.0°F 74% 30.53 in 10.0 miles Calm Calm - N/A   Clear
10:54 PM 16.0°F 9.0°F 74% 30.54 in 10.0 miles NNW 3.5 mph - N/A   Clear
11:54 PM 17.1°F 10.0°F 74% 30.55 in 10.0 miles NNW 3.5 mph - N/A   Clear
Astronomy
Sunrise:07:21 AM (CST) Moon Rise:02:15 AM (CST)11/28
Sunset:04:34 PM (CST) Moon Set:01:52 PM (CST)11/28
Moon Phase
Nov. 28 Dec. 03 Dec. 09 Dec. 17 Dec. 25

Copyright © 2017 The Weather Underground, Inc.